Regional Weather Roundup
Issued by NWS

Home | Current Version | Previous Version | Text Only | Print | Product List | Glossary Off
Versions: 1 2 3 4 5 6 7 8 9 10 11 12 13 14 15 16 17 18 19 20 21 22 23 24 25 26 27 28 29 30 31 32 33 34 35 36 37 38 39 40 41 42 43 44 45 46 47 48 49 50

000
ASUS43 KIND 192009
RWRIN

WEATHER ROUNDUP FOR INDIANA
NATIONAL WEATHER SERVICE INDIANAPOLIS IN
300 PM EST FRI JAN 19 2018

NOTE: "FAIR" INDICATES FEW OR NO CLOUDS BELOW 12,000 FEET WITH NO
SIGNIFICANT WEATHER AND/OR OBSTRUCTIONS TO VISIBILITY.

* - STATION DOES NOT REPORT WEATHER SUCH AS PRECIPITATION OR FOG.

+ - STATION NOT QUALITY CONTROLLED BY THE NATIONAL WEATHER SERVICE.
    USE DATA WITH CAUTION...ESPECIALLY DEWPOINT AND RELATIVE
    HUMIDITY OBSERVATIONS.

INZ001>003-010>013-019-020-192100-
NORTHWEST INDIANA

CITY           SKY/WX    TMP DP  RH WIND       PRES   REMARKS
GARY /AIRPORT/ PTSUNNY   39  23  52 SW18      29.82F WCI  30
KNOX *+        FAIR      34  23  64 SW20G26   29.86F WCI  22
LA PORTE +     FAIR      34  23  63 S17G25    29.84F WCI  23
MICHIGAN CITY+ FAIR      36  23  60 S17G26    29.82F WCI  25
MONTICELLO +   FAIR      36  21  55 S16       29.90F WCI  26
RENSSELAER +   FAIR      36  23  60 S17G23    29.88F WCI  25
VALPARAISO     FAIR      36  24  62 SW17G28   29.84F WCI  26

$$

LMZ046-743>745-192100-
SOUTHERN LAKE MICHIGAN

STATION/POSITION TIME  TEMP    WIND        PRES    WAVE
                       AIR SEA DIR/SP/G            HT
                 (UTC) (F)     (DEG/KT/KT) (MB)    (FT)
BURNS HARBOR     1940   36     210/ 15/ 22 1010.2F
MICHIGAN CITY    1940   36     180/ 15/ 19   N/A

$$

INZ004-005-014>016-021>024-192100-
NORTH CENTRAL INDIANA

CITY           SKY/WX    TMP DP  RH WIND       PRES   REMARKS
ELKHART        FAIR      36  19  51 S12G17    29.84F WCI  27
GOSHEN         FAIR      34  21  59 SW29G37   29.85F WCI  20
LOGANSPORT +   FAIR      34  23  64 SW15      29.93F WCI  24
PERU/GRISSOM   FAIR      35  24  64 S16G24    29.91F WCI  25
ROCHESTER +    FAIR      37  23  56 S15G21    29.90F WCI  28
SOUTH BEND     FAIR      35  21  56 SW16      29.84F WCI  25
WARSAW +       FAIR      36  21  55 S9G17     29.88F WCI  29

$$

INZ006>009-017-018-025>027-192100-
NORTHEAST INDIANA

CITY           SKY/WX    TMP DP  RH WIND       PRES   REMARKS
AUBURN +       FAIR      36 -26   6 SW10G21   29.89F WCI  28
FORT WAYNE     PTSUNNY   35  24  64 SW21      29.92F WCI  24
HUNTINGTON +   FAIR      35  20  54 SW13G18   29.92F WCI  27
KENDALLVILLE + FAIR      34  21  60 SW15G22   29.86F WCI  24

$$

INZ028-029-035-036-043>045-051>053-192100-
WEST CENTRAL INDIANA

CITY           SKY/WX    TMP DP  RH WIND       PRES   REMARKS
CRAWFORDSVL +  FAIR      34  23  64 MISG        N/A
GREENCASTLE +  FAIR      37  19  48 SW6       30.00F WCI  33
LAFAYETTE      FAIR      36  23  59 SW12      29.93F WCI  28
TERRE HAUTE    FAIR      36  21  54 S13       30.01F WCI  27

$$

INZ030>032-037>040-046>048-054>057-064-065-192100-
CENTRAL INDIANA

CITY           SKY/WX    TMP DP  RH WIND       PRES   REMARKS
ANDERSON       SUNNY     34  19  55 S17G23    29.98F WCI  23
COLUMBUS       SUNNY     36  16  44 S16G25    30.05F WCI  26
FRANKFORT +    FAIR      37  26  64 SW12G18   29.96F WCI  30
INDIANAPOLIS   PTSUNNY   40  21  46 SW15      29.99F WCI  32
-EAGLE CREEK   FAIR      39  20  46 SW10G23   29.99F WCI  32
MARION +       FAIR      34  23  64 SW16      29.96F WCI  24
MT COMFORT *+  FAIR      36  25  64 S10       29.99F WCI  28
SHELBYVILLE    FAIR      34  20  56 S18       30.01F WCI  23
ZIONSVILLE +   FAIR      36  20  53 SW17G23   29.97F WCI  25

$$

INZ033-034-041-042-049-050-058-059-192100-
EAST CENTRAL INDIANA

CITY           SKY/WX    TMP DP  RH WIND       PRES   REMARKS
MUNCIE         FAIR      35  18  49 SW14G24   29.96F WCI  26
RICHMOND +     FAIR      34  27  75 S14       30.00F WCI  24

$$

INZ060-061-067>069-081>083-085>088-192100-
SOUTHWEST INDIANA

CITY           SKY/WX    TMP DP  RH WIND       PRES   REMARKS
EVANSVILLE     FAIR      37  21  52 S13       30.11F WCI  29
HUNTINGBURG +  FAIR      37  21  52 S13       30.10F WCI  29
WASHINGTON +   FAIR      39  20  45 S17G23    30.06F WCI  30

$$

INZ062-063-066-070>080-084-089>092-192100-
SOUTH CENTRAL AND SOUTHEAST INDIANA

CITY           SKY/WX    TMP DP  RH WIND       PRES   REMARKS
BATESVILLE *+    N/A    N/A N/A N/A MISG        N/A
BEDFORD +      FAIR      41  19  42 S10       30.06F
BLOOMINGTON    FAIR      41  20  43 SW14      30.02F
FRENCH LICK *+ FAIR      37  14  38 SW9       30.07F WCI  31
MADISON *+     FAIR      37  19  48 S13       30.09F WCI  29
NORTH VERNON + FAIR      36  19  51 S15       30.06F WCI  26
SEYMOUR +      FAIR      41  21  45 SW10      30.07F

$$





USA.gov is the U.S. government's official web portal to all federal, state and local government web resources and services.